Weather History for Montgomery, NY

Change the Weather History Date:

Wednesday, February 13, 2013

  Actual Average (KPOU) Record (KPOU)
Temperature  
Mean Temperature 32 °F 28 °F  
Max Temperature 39 °F 39 °F 60 °F (1951)
Min Temperature 24 °F 17 °F -19 °F (1967)
Degree Days  
Heating Degree Days 34 37  
Month to date heating degree days 492  
Since 1 July heating degree days 4044  
Cooling Degree Days 0 0  
Month to date cooling degree days 0  
Year to date cooling degree days 0  
Moisture  
Dew Point 23 °F    
Average Humidity 64    
Maximum Humidity 92    
Minimum Humidity 45    
Precipitation  
Precipitation 0.01 in 0.09 in 2.64 in (2008)
Month to date precipitation 1.21  
Year to date precipitation 4.29  
Sea Level Pressure  
Sea Level Pressure 29.80 in    
Wind  
Wind Speed 3 mph (NNW)    
Max Wind Speed 8 mph    
Max Gust Speed -    
Visibility 9 miles    
Events Snow    
T = Trace of Precipitation, MM = Missing Value Source: NWS Daily Summary

Daily Weather History Graph

Daily Weather History Graph

Search for Another Location

Airport:

Trip Planner

Search our weather history database for the weather conditions in past years. The results will help you decide how hot, cold, wet, or windy it might be!

Date:

Astronomy

Feb. 13, 2013 Rise Set
Actual Time 6:54 AM EST 5:28 PM EST
Civil Twilight 6:26 AM EST 5:57 PM EST
Nautical Twilight 5:53 AM EST 6:29 PM EST
Astronomical Twilight 5:21 AM EST 7:01 PM EST
Moon 8:19 AM EST (2/13) 9:32 PM EST (2/13)
Length of Visible Light 11h 31m
Length of Day
10h 33m
Waxing Crescent, 13% of the Moon is Illuminated
Feb 13
Waxing Crescent
Feb 17
First Quarter
Feb 25
Full
Mar 4
Last Quarter
Mar 11
New

Hourly Weather History & Observations

Time (EST) Temp. Windchill Dew Point Humidity Pressure Visibility Wind Dir Wind Speed Gust Speed Precip Events Conditions
12:54 AM 35.1 °F 29.3 °F 21.9 °F 59% 29.90 in 10.0 mi NW 6.9 mph - N/A   Overcast
1:54 AM 35.1 °F 31.0 °F 19.9 °F 54% 29.92 in 10.0 mi WNW 4.6 mph - N/A   Overcast
2:54 AM 34.0 °F 31.0 °F 21.0 °F 59% 29.92 in 10.0 mi WNW 3.5 mph - N/A   Overcast
3:54 AM 34.0 °F 28.8 °F 19.9 °F 56% 29.91 in 10.0 mi West 5.8 mph - N/A   Overcast
4:54 AM 32.0 °F - 21.0 °F 64% 29.90 in 10.0 mi Calm Calm - N/A   Overcast
5:54 AM 27.0 °F 23.0 °F 19.9 °F 75% 29.89 in 10.0 mi West 3.5 mph - N/A   Clear
6:54 AM 24.1 °F - 19.0 °F 81% 29.88 in 10.0 mi Calm Calm - N/A   Clear
7:54 AM 24.1 °F - 19.0 °F 81% 29.90 in 10.0 mi Calm Calm - N/A   Clear
8:54 AM 33.1 °F - 21.0 °F 61% 29.88 in 10.0 mi Calm Calm - N/A   Clear
9:54 AM 36.0 °F 32.1 °F 19.9 °F 52% 29.86 in 10.0 mi Variable 4.6 mph - N/A   Clear
10:54 AM 37.9 °F - 19.9 °F 48% 29.84 in 10.0 mi Calm Calm - N/A   Clear
11:54 AM 37.9 °F 35.5 °F 19.9 °F 48% 29.85 in 10.0 mi ESE 3.5 mph - N/A   Clear
12:54 PM 37.9 °F 32.1 °F 21.0 °F 51% 29.80 in 10.0 mi South 8.1 mph - N/A   Clear
1:54 PM 39.9 °F - 21.0 °F 47% 29.76 in 10.0 mi Calm Calm - N/A   Clear
2:54 PM 39.9 °F - 19.9 °F 45% 29.75 in 10.0 mi Calm Calm - N/A   Clear
3:54 PM 39.9 °F - 21.0 °F 47% 29.73 in 10.0 mi Calm Calm - N/A   Clear
4:54 PM 39.9 °F - 21.0 °F 47% 29.71 in 10.0 mi Calm Calm - N/A   Clear
5:54 PM 36.0 °F - 26.1 °F 67% 29.71 in 10.0 mi Calm Calm - N/A   Scattered Clouds
6:54 PM 35.1 °F 32.2 °F 27.0 °F 72% 29.70 in 10.0 mi North 3.5 mph - N/A   Overcast
7:54 PM 36.0 °F 32.1 °F 25.0 °F 64% 29.70 in 10.0 mi NNE 4.6 mph - N/A   Overcast
8:54 PM 37.0 °F - 21.9 °F 54% 29.71 in 10.0 mi Calm Calm - N/A   Overcast
9:54 PM 35.1 °F 29.3 °F 28.0 °F 76% 29.72 in 5.0 mi North 6.9 mph - 0.00 in Snow Light Snow
10:10 PM 35.6 °F 31.7 °F 28.4 °F 75% 29.71 in 5.0 mi NNW 4.6 mph - 0.00 in Snow Light Snow
10:25 PM 33.8 °F 29.6 °F 30.2 °F 87% 29.71 in 2.5 mi North 4.6 mph - 0.00 in Snow Light Snow
10:54 PM 33.1 °F 28.7 °F 30.9 °F 92% 29.72 in 3.0 mi NNE 4.6 mph - 0.01 in Snow Light Snow
11:22 PM 33.8 °F 29.6 °F 30.2 °F 87% 29.70 in 5.0 mi NNE 4.6 mph - 0.00 in Snow Light Snow
11:54 PM 33.1 °F 30.0 °F 28.9 °F 85% 29.72 in 10.0 mi NNE 3.5 mph - 0.00 in   Overcast